User: anonymous   Login
Location: Unspecified
(0.0000°N, 0.0000°E)
Time: 10:16:47
(UTC+00:00)
Language:

KEPLER-O (KIPP) - Orbit

View from above orbital plane
View from above orbital plane
View from above satellite
View from above satellite

Ground track
Ground track

The orbit data is extracted from the following two-line orbital elements,

1 43157U 18008C   19107.87466304 +.00001608 +00000-0 +10182-3 0  9993
2 43157 097.4977 181.5558 0016373 163.7964 287.4011 15.10268328068456
Epoch (UTC): 17 April 2019 20:59:30
Eccentricity: 0.0016373
inclination: 97.4977°
perigee height: 524 km
apogee height: 547 km
right ascension of ascending node: 181.5558°
argument of perigee: 163.7964°
revolutions per day: 15.10268328
mean anomaly at epoch: 287.4011°
orbit number at epoch: 6845

The dashed part of the orbit path shows where the satellite is in the earth's shadow,  

DLR